Regional Weather Roundup
Issued by NWS Northern Indiana

Home | Current Version | Previous Version | Graphics & Text | Print | Product List | Glossary On
Versions: 1 2 3 4 5 6 7 8 9 10 11 12 13 14 15 16 17 18 19 20 21 22 23 24 25 26 27 28 29 30 31 32 33 34 35 36 37 38 39 40 41 42 43 44 45 46 47 48 49 50
000
ASUS43 KIWX 251110
RWRIWX

KIWX WEATHER ROUNDUP
NATIONAL WEATHER SERVICE NORTHERN INDIANA
700 AM EDT SUN SEP 25 2016

NOTE: "FAIR" INDICATES FEW OR NO CLOUDS BELOW 12,000 FEET WITH NO
SIGNIFICANT WEATHER AND/OR OBSTRUCTIONS TO VISIBILITY.

* THESE STATIONS ARE NOT UNDER NWS QUALITY CONTROL. THEY ALSO MAY NOT
  REPORT WEATHER SUCH AS PRECIPITATION OR FOG.

INZ001>027-251200-
NORTHERN INDIANA

CITY           SKY/WX    TMP DP  RH WIND       PRES   REMARKS
GARY*          PTCLDY    64  57  77 SE12      30.11F
VALPARAISO     CLEAR     58  53  84 E6        30.13F
MICHIGAN CITY* CLEAR     59  52  77 MISG      30.13S
LAPORTE*       CLEAR     59  59 100 SE3       30.15S
KNOX*          CLEAR     59  34  38 SE5       30.14R
SOUTH BEND     PTCLDY    59  53  80 SE10      30.16F
GOSHEN         PTCLDY    58  50  75 SE8       30.17R
MONTICELLO*    MOCLDY    60  52  74 E5        30.13S
LOGANSPORT*    CLEAR     55  54  94 E5        30.15R
ROCHESTER*     CLEAR     59  54  82 E7        30.15S
WARSAW*        CLEAR     55  46  71 E3        30.16S
ANGOLA*          N/A     54  43  66 SE5       30.18S
FORT WAYNE     PTCLDY    55  50  83 E5        30.16F
HUNTINGTON*    CLEAR     55  52  90 CALM      30.16S
PERU/GRISSOM   CLEAR     59  53  81 E5        30.13S
MARION*        CLEAR     57  52  84 E6        30.16S

$$
INZ028>050-251200-
CENTRAL INDIANA

CITY           SKY/WX    TMP DP  RH WIND       PRES   REMARKS
LAFAYETTE      CLEAR     61  59  93 E9        30.11S
MUNCIE*        CLEAR     57  54  89 E5        30.15S
INDIANAPOLIS   CLEAR     64  59  83 E7        30.12S

$$
MIZ043>046-050>051-056>058-064>065-071>073-077>080-251200-
SOUTHWEST LOWER MICHIGAN

CITY           SKY/WX    TMP DP  RH WIND       PRES   REMARKS
BATTLE CREEK   CLEAR     55  51  86 SE6       30.18S
BENTON HARBOR  CLOUDY    61  53  75 SE9       30.14S
COLDWATER*     CLEAR     54  51  90 SE5       30.18S
HILLSDALE*     CLEAR     52  46  82 SE5       30.18S
HOLLAND        MOCLDY    55  53  93 E7        30.16S
GRAND RAPIDS   PTCLDY    51  47  86 E5        30.18S
KALAMAZOO      CLEAR     55  51  86 CALM      30.18S
STURGIS*       CLEAR     56  51  81 SE6       30.17R
THREE RIVERS*  FAIR      58  54  88 S3        30.18R

$$
OHZ001>008-015>018-024>025-251200-
NORTHWEST OHIO

CITY           SKY/WX    TMP DP  RH WIND       PRES   REMARKS
WAUSEON*       FAIR      52  48  87 CALM      30.20R
DEFIANCE       CLEAR     53  49  86 CALM      30.19S
FINDLAY        CLEAR     54  46  74 E6        30.17S
TOLEDO EXPRESS CLEAR     50  50 100 CALM      30.19S
TOLEDO METCALF CLEAR     53  47  79 E3        30.20S
LIMA           CLEAR     51  50  96 E5        30.17S

$$
AND FOR LAKE MICHIGAN COASTAL AND OPEN LAKE BUOY OBSERVATIONS

STATION/POSITION TEMP    WIND        PRES    VSBY  WAVE
                 AIR SEA DIR/SP/G                  HT/PER
                 (F)     (DEG/KT/KT) (MB)    (MI)  (FT/S)
CALUMET HARBOR    65     150/  5/ 11 1019.1S
MICHIGAN CITY     62     120/ 13/ 15   N/A
BURNS HARBOR      63     150/ 13/ 24 1020.0S
SAINT JOSEPH      61     200/  4/  8 1021.0
SOUTH LAKE BUOY   67 72  140/ 17/ 21 1019.1F         3/ 5
4 MI NW BRIDGMAN  62 68  130/ 14/ 17 1020.0          2/ 2
MICHIGAN CITY     62 67  150/ 12/ 17   N/A           1/ 2

$$
&&



USA.gov is the U.S. government's official web portal to all federal, state and local government web resources and services.